Sterling Muni, Sterling, CO, CO

1:25 AM MST on February 24, 2018 (GMT -0700)
Sterling Municipal

Weather History for KSTK - December, 2012

Change the Weather History Date:

Sunday, December 2, 2012

  Actual Average Record
Temperature  
Mean Temperature 46 °F -  
Max Temperature 68 °F 42 °F 64 °F (2014)
Min Temperature 24 °F 14 °F 15 °F (2016)
Degree Days  
Heating Degree Days 19    
Moisture  
Dew Point 23 °F    
Average Humidity 57    
Maximum Humidity 93    
Minimum Humidity 17    
Precipitation  
Precipitation 0.00 in - - ()
Sea Level Pressure  
Sea Level Pressure 29.80 in    
Wind  
Wind Speed 5 mph ()    
Max Wind Speed 18 mph    
Max Gust Speed 25 mph    
Visibility 10.0 miles    
Events      
Averages and records for this station are not official NWS values.
T = Trace of Precipitation, MM = Missing Value Source: Averaged Metar Reports

Daily Weather History Graph

Daily Weather History Graph

Search for Another Location

Airport or City:

Trip Planner

Search our weather history database for the weather conditions in past years. The results will help you decide how hot, cold, wet, or windy it might be!

Date:

Astronomy

Dec. 02, 2012 Rise Set
Actual Time 6:58 AM MST 4:26 PM MST
Civil Twilight 6:28 AM MST 4:56 PM MST
Nautical Twilight 5:54 AM MST 5:30 PM MST
Astronomical Twilight 5:21 AM MST 6:03 PM MST
Moon 8:16 PM MST (12/2) 9:49 AM MST (12/2)
Length of Visible Light 10h 28m
Length of Day
9h 27m
Waning Gibbous, 85% of the Moon is Illuminated
Dec 2
Waning Gibbous
Dec 6
Last Quarter
Dec 13
New
Dec 19
First Quarter
Dec 28
Full

Hourly Weather History & Observations

Time (MST) Temp. Windchill Dew Point Humidity Pressure Visibility Wind Dir Wind Speed Gust Speed Precip Events Conditions
12:15 AM 32.0 °F 25.6 °F 24.8 °F 75% 29.97 in 10.0 mi West 6.9 mph - N/A   Clear
12:35 AM 32.0 °F 26.4 °F 26.6 °F 80% 29.97 in 10.0 mi SSW 5.8 mph - N/A   Clear
12:55 AM 32.0 °F - 26.6 °F 80% 29.98 in 10.0 mi Calm Calm - N/A   Clear
1:15 AM 32.0 °F 27.5 °F 26.6 °F 80% 29.97 in 10.0 mi East 4.6 mph - N/A   Clear
1:35 AM 32.0 °F - 24.8 °F 75% 29.98 in 10.0 mi Calm Calm - N/A   Clear
1:55 AM 30.2 °F - 24.8 °F 80% 29.97 in 10.0 mi Calm Calm - N/A   Clear
2:15 AM 28.4 °F - 24.8 °F 86% 29.99 in 10.0 mi Calm Calm - N/A   Clear
2:35 AM 30.2 °F 26.7 °F 24.8 °F 80% 29.96 in 10.0 mi South 3.5 mph - N/A   Clear
2:55 AM 28.4 °F 24.6 °F 23.0 °F 80% 29.96 in 10.0 mi WNW 3.5 mph - N/A   Clear
3:15 AM 28.4 °F 24.6 °F 24.8 °F 86% 29.96 in 10.0 mi NW 3.5 mph - N/A   Clear
3:35 AM 28.4 °F 24.6 °F 23.0 °F 80% 29.95 in 10.0 mi WNW 3.5 mph - N/A   Clear
3:55 AM 28.4 °F 24.6 °F 23.0 °F 80% 29.95 in 10.0 mi WSW 3.5 mph - N/A   Clear
4:15 AM 26.6 °F - 23.0 °F 86% 29.96 in 10.0 mi Calm Calm - N/A   Clear
4:35 AM 26.6 °F 22.6 °F 21.2 °F 80% 29.95 in 10.0 mi SSW 3.5 mph - N/A   Clear
4:55 AM 26.6 °F 21.2 °F 23.0 °F 86% 29.95 in 10.0 mi ENE 4.6 mph - N/A   Clear
5:15 AM 26.6 °F - 23.0 °F 86% 29.96 in 10.0 mi Calm Calm - N/A   Clear
5:35 AM 28.4 °F - 23.0 °F 80% 29.96 in 10.0 mi Calm Calm - N/A   Clear
5:55 AM 26.6 °F 21.2 °F 23.0 °F 86% 29.96 in 10.0 mi South 4.6 mph - N/A   Clear
6:15 AM 24.8 °F 16.9 °F 21.2 °F 86% 29.96 in 10.0 mi SSW 6.9 mph - N/A   Clear
6:35 AM 26.6 °F 22.6 °F 23.0 °F 86% 29.96 in 10.0 mi South 3.5 mph - N/A   Clear
6:55 AM 24.8 °F 15.3 °F 21.2 °F 86% 29.95 in 10.0 mi SSW 9.2 mph - N/A   Clear
7:15 AM 28.4 °F 23.3 °F 26.6 °F 93% 29.95 in 10.0 mi SW 4.6 mph - N/A   Clear
7:35 AM 28.4 °F 21.2 °F 24.8 °F 86% 29.96 in 10.0 mi SW 6.9 mph - N/A   Clear
7:55 AM 32.0 °F 22.5 °F 26.6 °F 80% 29.95 in 10.0 mi SW 12.7 mph - N/A   Clear
8:15 AM 32.0 °F 24.2 °F 28.4 °F 87% 29.94 in 10.0 mi SW 9.2 mph - N/A   Clear
8:35 AM 32.0 °F 24.8 °F 28.4 °F 87% 29.94 in 10.0 mi SW 8.1 mph - N/A   Clear
8:55 AM 33.8 °F 27.0 °F 28.4 °F 81% 29.93 in 10.0 mi SSW 8.1 mph - N/A   Clear
9:15 AM 35.6 °F 28.0 °F 28.4 °F 75% 29.92 in 10.0 mi South 10.4 mph - N/A   Clear
9:35 AM 37.4 °F 30.3 °F 30.2 °F 75% 29.91 in 10.0 mi SSW 10.4 mph - N/A   Clear
9:55 AM 37.4 °F 29.8 °F 28.4 °F 70% 29.91 in 10.0 mi SW 11.5 mph - N/A   Clear
10:15 AM 41.0 °F 34.7 °F 30.2 °F 65% 29.90 in 10.0 mi SW 10.4 mph - N/A   Clear
10:35 AM 44.6 °F 37.8 °F 30.2 °F 57% 29.89 in 10.0 mi SW 15.0 mph - N/A   Clear
10:55 AM 44.6 °F 39.2 °F 28.4 °F 53% 29.87 in 10.0 mi SW 10.4 mph - N/A   Clear
11:15 AM 46.4 °F 42.4 °F 30.2 °F 53% 29.86 in 10.0 mi SSW 8.1 mph - N/A   Clear
11:35 AM 50.0 °F - 28.4 °F 43% 29.86 in 10.0 mi WSW 8.1 mph - N/A   Clear
11:55 AM 53.6 °F - 28.4 °F 38% 29.83 in 10.0 mi SW 8.1 mph - N/A   Clear
12:15 PM 59.0 °F - 24.8 °F 27% 29.81 in 10.0 mi SW 10.4 mph - N/A   Clear
12:35 PM 59.0 °F - 23.0 °F 25% 29.79 in 10.0 mi SSW 4.6 mph - N/A   Clear
12:55 PM 60.8 °F - 23.0 °F 23% 29.78 in 10.0 mi SSW 6.9 mph - N/A   Clear
1:15 PM 64.4 °F - 24.8 °F 22% 29.76 in 10.0 mi South 6.9 mph - N/A   Clear
1:35 PM 68.0 °F - 26.6 °F 21% 29.75 in 10.0 mi South 5.8 mph - N/A   Clear
2:15 PM 68.0 °F - 23.0 °F 18% 29.72 in 10.0 mi South 17.3 mph 25.3 mph N/A   Clear
2:35 PM 68.0 °F - 21.2 °F 17% 29.70 in 10.0 mi SSW 17.3 mph 24.2 mph N/A   Clear
2:55 PM 68.0 °F - 21.2 °F 17% 29.69 in 10.0 mi South 18.4 mph 25.3 mph N/A   Clear
3:15 PM 68.0 °F - 21.2 °F 17% 29.70 in 10.0 mi SSW 13.8 mph 21.9 mph N/A   Clear
3:35 PM 64.4 °F - 21.2 °F 19% 29.67 in 10.0 mi South 12.7 mph - N/A   Clear
3:55 PM 60.8 °F - 19.4 °F 20% 29.68 in 10.0 mi SSW 8.1 mph - N/A   Clear
4:15 PM 59.0 °F - 19.4 °F 22% 29.68 in 10.0 mi SSE 5.8 mph - N/A   Clear
4:35 PM 53.6 °F - 19.4 °F 26% 29.67 in 10.0 mi SSE 6.9 mph - N/A   Clear
4:55 PM 51.8 °F - 19.4 °F 28% 29.67 in 10.0 mi South 8.1 mph - N/A   Clear
5:15 PM 50.0 °F - 19.4 °F 30% 29.66 in 10.0 mi South 9.2 mph - N/A   Clear
5:35 PM 51.8 °F - 21.2 °F 30% 29.66 in 10.0 mi South 8.1 mph - N/A   Clear
5:55 PM 50.0 °F - 21.2 °F 32% 29.65 in 10.0 mi South 10.4 mph - N/A   Clear
6:15 PM 46.4 °F 42.9 °F 19.4 °F 34% 29.64 in 10.0 mi South 6.9 mph - N/A   Clear
6:35 PM 44.6 °F 40.2 °F 21.2 °F 39% 29.64 in 10.0 mi South 8.1 mph - N/A   Clear
6:55 PM 42.8 °F 39.3 °F 19.4 °F 39% 29.63 in 10.0 mi SE 5.8 mph - N/A   Clear
7:15 PM 44.6 °F 40.7 °F 19.4 °F 37% 29.63 in 10.0 mi South 6.9 mph - N/A   Clear
7:35 PM 42.8 °F 40.1 °F 19.4 °F 39% 29.62 in 10.0 mi SSW 4.6 mph - N/A   Clear
7:55 PM 37.4 °F 30.8 °F 19.4 °F 48% 29.61 in 10.0 mi SW 9.2 mph - N/A   Clear
8:15 PM 42.8 °F - 19.4 °F 39% 29.62 in 10.0 mi Calm Calm - N/A   Clear
8:35 PM 37.4 °F 32.1 °F 19.4 °F 48% 29.62 in 10.0 mi WSW 6.9 mph - N/A   Clear
8:55 PM 42.8 °F - 21.2 °F 42% 29.61 in 10.0 mi Calm Calm - N/A   Clear
9:15 PM 37.4 °F - 21.2 °F 52% 29.62 in 10.0 mi Calm Calm - N/A   Clear
9:35 PM 37.4 °F - 21.2 °F 52% 29.61 in 10.0 mi Calm Calm - N/A   Clear
9:55 PM 35.6 °F - 21.2 °F 56% 29.60 in 10.0 mi Calm Calm - N/A   Clear
10:15 PM 37.4 °F 32.8 °F 21.2 °F 52% 29.60 in 10.0 mi WSW 5.8 mph - N/A   Clear
10:35 PM 33.8 °F - 21.2 °F 60% 29.59 in 10.0 mi Calm Calm - N/A   Clear
10:55 PM 32.0 °F - 21.2 °F 64% 29.60 in 10.0 mi Calm Calm - N/A   Clear
11:15 PM 28.4 °F 21.2 °F 19.4 °F 69% 29.60 in 10.0 mi WNW 6.9 mph - N/A   Clear
11:35 PM 30.2 °F 23.4 °F 21.2 °F 69% 29.60 in 10.0 mi NNW 6.9 mph - N/A   Clear
11:55 PM 32.0 °F 26.4 °F 21.2 °F 64% 29.60 in 10.0 mi SE 5.8 mph - N/A   Clear